[[{"header":{"parameterUnit":"m.s-1","parameterCategory":1,"la1":30.2991,"la2":30.254,"lo1":-89.0895,"lo2":-89.0444,"dy":0.0017,"dx":0.0017,"nx":28,"ny":28,"refTime":"2024-04-04T09:00:00:Z","depth":0,"parameterNumber":2,"parameterNumberName":"U-component_of_WINDS"},"data":[0,0,0,0,0,0,0,0,0,0,0,0,0,0,0,0,0,0,0,0,0,0,0,0,0,0,0,0,0,0,0,0,0,0,0,0,0,0,0,0,0,0,0,0,0,0,0,0,0,0,0,0,0,0,0,0,0,0,5.9434,5.9435,0,5.9477,5.9477,5.9478,5.942,5.9418,5.9416,5.9414,5.9458,5.9462,5.9465,0,0,0,0,0,0,0,0,0,0,0,0,0,5.9305,5.9308,5.9434,5.9435,5.9435,5.9477,5.9477,5.9478,5.942,5.9418,5.9415,5.9413,5.9457,5.9461,5.9465,0,0,0,0,0,0,0,0,0,0,0,0,0,5.9356,5.9309,5.9434,5.9411,5.941,5.9477,5.9477,5.9478,5.9421,5.9418,5.9414,5.9412,5.9456,5.9461,5.9465,5.9557,0,0,5.948,5.9482,0,0,0,0,0,0,0,0,5.9353,5.9361,5.9414,5.9413,5.9411,5.944,5.9448,5.9504,5.9422,5.9417,5.9414,5.941,5.9455,5.9459,5.9474,5.9559,5.9561,5.948,5.9483,5.9485,5.9486,0,0,0,0,0,0,0,5.935,5.9359,5.9451,5.9415,5.9413,5.94,5.9404,5.9459,5.9453,5.9417,5.9413,5.9419,5.9454,5.947,5.9475,5.9561,5.948,5.9484,5.9487,5.9489,5.9725,5.9728,0,0,0,0,0,0,5.9349,5.9356,5.945,5.9452,5.9374,5.9405,5.9409,5.9434,5.9452,5.9452,5.9421,5.9416,5.9463,5.947,5.9476,5.9585,5.9485,5.9489,5.9492,5.9721,5.9725,5.9729,0,0,0,0,0,0,5.9346,5.9358,5.9448,5.9403,5.9414,5.941,5.9439,5.9436,5.9453,5.9455,5.9454,5.9439,5.9461,5.947,5.9537,5.9586,5.9491,5.9496,5.9717,5.9723,5.9727,5.9803,0,0,0,0,0,0,5.9343,5.9357,5.9391,5.9404,5.9416,5.9508,5.9442,5.9439,5.9461,5.9454,5.9471,5.9471,5.9459,5.9531,5.9542,5.9591,5.9499,5.9713,5.972,5.9726,5.9796,5.981,5.9822,0,0,0,0,0,5.9338,5.941,5.9393,5.9405,5.9459,5.9511,5.9518,5.9502,5.9465,5.9499,5.9501,5.9471,5.9579,5.9538,5.955,5.9601,5.971,5.9718,5.9725,5.9791,5.9808,5.9822,0,0,0,0,0,0,5.9403,5.9412,5.9392,5.9471,5.9491,5.9501,5.9544,5.952,5.9551,5.9543,5.9523,5.9528,5.96,5.9607,5.9562,5.9691,5.9638,5.9649,5.9684,5.97,5.9713,5.9709,5.9503,0,0,0,0,0,5.9426,5.9467,5.9473,5.9542,5.9553,5.9547,5.9569,5.9556,5.9575,5.9583,5.959,5.9611,5.9649,5.9675,5.9711,5.9798,5.9801,5.9839,5.9852,5.9862,5.9872,5.9919,5.9936,5.9755,5.9755,5.9754,0,0,5.9475,5.9485,5.9512,5.9555,5.9569,5.9613,5.9554,5.9603,5.9635,5.9591,5.9655,5.9661,5.9683,5.9761,5.9796,5.9769,5.9923,5.9872,5.9881,5.9884,5.9929,5.9946,5.9962,5.976,5.9759,5.9758,0,0,5.9586,5.9597,5.9656,5.9672,5.9693,5.9689,5.9704,5.9718,5.972,5.9785,5.9752,5.9791,5.9858,5.9875,5.9893,6.0013,5.9986,6.0025,6.0093,6.014,6.0154,6.0167,6.021,6.0226,6.0035,6.0035,6.0035,0,5.9643,5.9708,5.969,5.9741,5.9762,5.9724,5.9784,5.98,5.9832,5.9848,5.9818,5.9902,5.9914,5.9996,6.0025,6.0041,6.0057,6.0023,6.0153,6.0166,6.0177,6.0218,6.0235,6.0039,6.0039,6.0038,6.0038,0,5.9778,5.9824,5.9869,5.9901,5.9927,5.9983,5.9974,6.0003,5.9988,5.9987,6.0054,6.0068,6.0106,6.0124,6.011,6.0205,6.0188,6.0156,6.0102,6.02,6.0238,6.0254,6.0046,6.0044,6.0043,6.0042,0,0,5.993,5.9953,5.997,5.9985,6.0007,6.0041,6.0096,6.0134,6.0159,6.0183,6.0229,6.0287,6.0258,6.0278,6.0266,6.0307,6.0402,6.027,6.027,6.0294,6.0509,6.0533,6.0551,6.0385,6.0388,6.0391,6.0507,0,6.0041,6.0135,6.0122,6.0213,6.0255,6.0221,6.0268,6.0288,6.0289,6.0326,6.0328,6.037,6.0328,6.034,6.0379,6.0382,6.0445,6.0374,6.0428,6.043,6.0423,6.0571,6.0596,6.0706,6.0522,6.0525,6.0527,0,6.0183,6.0213,6.0308,6.0325,6.0342,6.0385,6.0419,6.0455,6.0476,6.0475,6.0498,6.0479,6.0535,6.0481,6.0558,6.051,6.0531,6.0537,6.0541,6.0545,6.0484,6.058,6.074,6.0757,6.055,6.0548,6.0547,0,6.0285,6.0349,6.0414,6.0428,6.0449,6.048,6.0491,6.0509,6.0533,6.0563,6.0579,6.0615,6.0635,6.0664,6.0656,6.0617,6.0736,6.068,6.0736,6.0737,6.0762,6.076,6.0928,6.0777,6.0776,6.0776,6.0776,0,6.041,6.047,6.046,6.05,6.0567,6.0552,6.0618,6.0624,6.0642,6.0683,6.0656,6.0696,6.0682,6.0721,6.0715,6.0781,6.079,6.079,6.0788,6.0793,6.0793,6.0806,6.0798,6.078,6.0779,6.0779,6.0778,0,6.0535,6.053,6.0599,6.0614,6.062,6.0668,6.0681,6.0719,6.0719,6.0772,6.0784,6.0784,6.0829,6.0824,6.0874,6.087,6.0951,6.094,6.0944,6.0941,6.0997,6.0992,6.118,6.1204,6.1037,6.1038,6.104,0,6.0615,6.066,6.068,6.0706,6.0719,6.0761,6.0785,6.0773,6.0799,6.0829,6.0864,6.0906,6.094,6.1014,6.1019,6.1057,6.1047,6.111,6.1052,6.1056,6.1048,6.1045,6.105,6.1121,6.1123,6.1124,6.1126,0,6.0758,6.0754,6.079,6.0827,6.0857,6.0885,6.091,6.0933,6.0923,6.0954,6.1,6.1026,6.1078,6.1121,6.1158,6.1169,6.1146,6.1144,6.1159,6.1164,6.1164,6.1165,6.0975,6.1139,6.1138,6.1137,6.1136,6.1136,6.0863,6.0902,6.0922,6.0964,6.0982,6.1007,6.1044,6.1049,6.1087,6.1127,6.1118,6.117,6.1192,6.1239,6.1255,6.1296,6.1273,6.1294,6.13,6.1305,6.1312,6.1158,6.1303,6.1302,6.1302,6.1301,6.1301,0,6.1005,6.1017,6.1055,6.1092,6.1125,6.1101,6.1128,6.1157,6.1203,6.1226,6.1259,6.1313,6.1355,6.1364,6.1404,6.1435,6.1426,6.1446,6.1444,6.1447,6.133,6.1313,6.1453,6.1453,6.1453,6.1453,6.1453,6.1453,6.1082,6.1148,6.1146,6.1221,6.1232,6.1283,6.13,6.1323,6.1341,6.1402,6.1437,6.1442,6.146,6.1501,6.1539,6.1541,6.1557,6.1582,6.1579,6.147,6.1455,6.144,6.1424,6.1585,6.1586,6.1692,6.1693,6.1694]},{"header":{"parameterUnit":"m.s-1","parameterCategory":1,"la1":30.2991,"la2":30.254,"lo1":-89.0895,"lo2":-89.0444,"dy":0.0017,"dx":0.0017,"nx":28,"ny":28,"refTime":"2024-04-04T09:00:00:Z","depth":0,"parameterNumber":3,"parameterNumberName":"V-component_of_WINDS"},"data":[0,0,0,0,0,0,0,0,0,0,0,0,0,0,0,0,0,0,0,0,0,0,0,0,0,0,0,0,0,0,0,0,0,0,0,0,0,0,0,0,0,0,0,0,0,0,0,0,0,0,0,0,0,0,0,0,0,0,1.3113,1.3116,0,1.3382,1.3385,1.3388,1.3448,1.3446,1.3444,1.3442,1.3724,1.3733,1.3742,0,0,0,0,0,0,0,0,0,0,0,0,0,1.2656,1.2664,1.3113,1.3116,1.312,1.3382,1.3386,1.3389,1.3448,1.3445,1.3443,1.3441,1.3721,1.3732,1.3743,0,0,0,0,0,0,0,0,0,0,0,0,0,1.2882,1.2666,1.3113,1.318,1.3189,1.3381,1.3386,1.339,1.3448,1.3445,1.3442,1.344,1.3717,1.3731,1.3744,1.389,0,0,1.3787,1.3793,0,0,0,0,0,0,0,0,1.287,1.2899,1.3167,1.3176,1.3186,1.3378,1.3328,1.3558,1.3449,1.335,1.3442,1.3438,1.3612,1.3634,1.3691,1.3903,1.3915,1.3788,1.3797,1.3803,1.3807,0,0,0,0,0,0,0,1.2854,1.2888,1.322,1.3171,1.3183,1.3199,1.3228,1.3372,1.3494,1.3359,1.3363,1.3394,1.3616,1.3678,1.3698,1.3919,1.3788,1.3801,1.3809,1.3815,1.4262,1.4265,0,0,0,0,0,0,1.2825,1.2875,1.3211,1.3228,1.3017,1.321,1.3242,1.332,1.3493,1.3516,1.3396,1.3396,1.3655,1.3682,1.3708,1.3889,1.3803,1.3816,1.3824,1.4259,1.4263,1.4267,0,0,0,0,0,0,1.2815,1.2855,1.32,1.3053,1.3098,1.3221,1.3307,1.3327,1.3388,1.3521,1.3544,1.3436,1.3654,1.3689,1.3843,1.3899,1.3822,1.3835,1.4255,1.426,1.4265,1.425,0,0,0,0,0,0,1.2802,1.2851,1.2906,1.3053,1.3105,1.3329,1.3311,1.3334,1.3411,1.3413,1.3565,1.3587,1.3654,1.3822,1.3857,1.3917,1.3846,1.425,1.4257,1.4263,1.4246,1.4254,1.4261,0,0,0,0,0,1.2785,1.2893,1.2908,1.2949,1.3177,1.3332,1.3362,1.3436,1.3415,1.3472,1.3558,1.3582,1.3887,1.3837,1.3878,1.3942,1.4247,1.4255,1.4263,1.4243,1.4253,1.4261,0,0,0,0,0,0,1.2751,1.2913,1.2932,1.3091,1.3197,1.3342,1.3416,1.3444,1.356,1.3557,1.3645,1.3679,1.3828,1.3901,1.3843,1.4091,1.4067,1.4083,1.4038,1.4048,1.4055,1.4034,1.3858,0,0,0,0,0,1.2762,1.2873,1.3009,1.3136,1.3188,1.3292,1.3363,1.341,1.3525,1.3571,1.3668,1.378,1.3901,1.3979,1.4098,1.4257,1.4291,1.4322,1.4329,1.4334,1.4347,1.4436,1.4451,1.4293,1.4292,1.4292,0,0,1.2786,1.2888,1.2953,1.3131,1.3219,1.3333,1.333,1.3452,1.3537,1.359,1.3741,1.3816,1.3947,1.4104,1.4178,1.4169,1.4398,1.4344,1.4348,1.4358,1.4445,1.446,1.4473,1.4298,1.4297,1.4296,0,0,1.2886,1.2975,1.3089,1.3176,1.3308,1.3377,1.3404,1.3546,1.3597,1.3749,1.379,1.3895,1.4102,1.4193,1.4266,1.44,1.4426,1.4436,1.4475,1.456,1.4572,1.4584,1.463,1.4646,1.4449,1.4449,1.4449,0,1.2899,1.3071,1.3145,1.3263,1.3341,1.3391,1.3508,1.359,1.3755,1.3808,1.3795,1.4055,1.4147,1.4325,1.4357,1.4415,1.4449,1.4419,1.4564,1.4577,1.4588,1.4634,1.4651,1.4449,1.4449,1.4449,1.4449,0,1.308,1.3198,1.3275,1.3429,1.3516,1.3633,1.3726,1.3805,1.3844,1.3915,1.4069,1.4181,1.4322,1.4368,1.441,1.4553,1.4543,1.4546,1.4523,1.4602,1.4646,1.4664,1.4449,1.4449,1.4449,1.4449,0,0,1.3167,1.3359,1.3386,1.3456,1.3606,1.3699,1.3819,1.3955,1.402,1.4133,1.4236,1.4409,1.4412,1.4495,1.4547,1.4622,1.4719,1.4617,1.4621,1.463,1.4882,1.4877,1.4896,1.4737,1.4741,1.4744,1.487,0,1.3284,1.3497,1.3566,1.3744,1.3854,1.3903,1.4008,1.4111,1.418,1.4285,1.4362,1.4483,1.4479,1.4529,1.4606,1.4691,1.477,1.4683,1.4834,1.4839,1.4798,1.4919,1.4915,1.5029,1.4888,1.4891,1.4894,0,1.345,1.3561,1.3749,1.3882,1.3931,1.4023,1.4153,1.4252,1.4371,1.4416,1.4507,1.4553,1.4681,1.4651,1.4828,1.4767,1.4833,1.4884,1.4891,1.4907,1.487,1.4937,1.5067,1.5083,1.4922,1.4919,1.4917,0,1.3492,1.369,1.3827,1.3886,1.4046,1.4109,1.4179,1.4295,1.4371,1.4486,1.4536,1.4665,1.4735,1.4834,1.4913,1.4884,1.5083,1.506,1.5124,1.5122,1.5163,1.5159,1.5304,1.5208,1.5208,1.5207,1.5207,0,1.3615,1.3727,1.3847,1.3932,1.4059,1.4139,1.4264,1.4337,1.4439,1.4539,1.4592,1.4685,1.4784,1.4891,1.4955,1.5091,1.5123,1.5163,1.5178,1.5158,1.5152,1.5202,1.5195,1.5212,1.5211,1.521,1.5209,0,1.3683,1.3768,1.3921,1.4059,1.4096,1.4184,1.4303,1.4387,1.4458,1.4584,1.4619,1.473,1.4859,1.4947,1.5113,1.5155,1.5302,1.5318,1.5261,1.5269,1.5327,1.532,1.5508,1.5536,1.5422,1.5423,1.5424,0,1.3755,1.3842,1.3989,1.4058,1.4128,1.424,1.4318,1.44,1.448,1.462,1.4688,1.4819,1.4928,1.513,1.5227,1.5354,1.5372,1.5429,1.5391,1.5367,1.5371,1.5364,1.5372,1.5434,1.5435,1.5436,1.5436,0,1.3873,1.3911,1.402,1.4144,1.4234,1.4337,1.444,1.4494,1.4595,1.4682,1.4812,1.4896,1.5064,1.5193,1.5329,1.5403,1.5436,1.5447,1.5469,1.5448,1.5411,1.543,1.5275,1.5442,1.5442,1.5441,1.5441,1.5441,1.3945,1.4024,1.4139,1.4259,1.4344,1.4439,1.4524,1.4604,1.4714,1.4855,1.4898,1.5033,1.5149,1.5334,1.541,1.5517,1.5513,1.5545,1.5552,1.5558,1.5557,1.5394,1.5543,1.5543,1.5543,1.5543,1.5543,0,1.4064,1.414,1.425,1.439,1.4484,1.4506,1.4621,1.4699,1.4816,1.4921,1.5026,1.5176,1.5301,1.5407,1.5537,1.5603,1.5622,1.5634,1.563,1.5646,1.5554,1.5522,1.5617,1.5617,1.5617,1.5617,1.5617,1.5617,1.4137,1.4271,1.4322,1.45,1.4576,1.4707,1.477,1.4858,1.4942,1.5105,1.5209,1.5276,1.5382,1.552,1.5636,1.5664,1.5709,1.5718,1.5749,1.5661,1.5653,1.5644,1.5614,1.5727,1.5727,1.5832,1.5833,1.5834]}]]